[[[{"header":{"parameterUnit":"kt","parameterCategory":2,"dx":1,"dy":1,"la1":30.253999710083008,"la2":30.299108505249023,"lo1":-89.0895004272461,"lo2":-89.04439544677734,"nx":28,"ny":28,"refTime":"2022-10-27T21:00:00:Z","depth":0,"parameterNumber":1,"parameterNumberName":"U-component_of_WINDS"},"data":[-2.3382,-2.3423,-2.3377,-2.3404,-2.3368,-2.3378,-2.3368,-2.3349,-2.3323,-2.3331,-2.3328,-2.3287,-2.3243,-2.3229,-2.3223,-2.3205,-2.3207,-2.3255,-2.3226,-2.3049,-2.3022,-2.2996,-2.2983,-2.3256,-2.3256,-2.3417,-2.3418,-2.3419,-2.3259,-2.3224,-2.3224,-2.3193,-2.3193,-2.3119,-2.3089,-2.3095,-2.3106,-2.3074,-2.3067,-2.3071,-2.3067,-2.3005,-2.2995,-2.3014,-2.298,-2.3015,-2.3014,-2.3009,-2.2818,-2.2805,-2.3044,-2.3044,-2.3044,-2.3044,-2.3043,-2.3043,-2.3025,-2.3051,-2.3005,-2.3004,-2.2976,-2.2956,-2.2973,-2.2921,-2.292,-2.2903,-2.2847,-2.286,-2.2818,-2.2782,-2.2759,-2.2767,-2.272,-2.2744,-2.2751,-2.2759,-2.2776,-2.2555,-2.2763,-2.2762,-2.2761,-2.276,-2.276,0,-2.284,-2.2799,-2.2795,-2.2778,-2.2775,-2.2757,-2.2733,-2.2742,-2.264,-2.2644,-2.2646,-2.264,-2.2627,-2.2624,-2.2603,-2.2572,-2.2497,-2.2483,-2.2501,-2.253,-2.2559,-2.2547,-2.224,-2.2478,-2.2475,-2.2473,-2.2472,-2.2471,-2.2602,-2.2637,-2.2565,-2.2569,-2.2543,-2.255,-2.2545,-2.2451,-2.245,-2.2407,-2.2435,-2.243,-2.2421,-2.2432,-2.237,-2.2361,-2.2325,-2.2421,-2.2323,-2.2349,-2.2329,-2.2329,-2.2333,-2.2443,-2.2447,-2.245,-2.2452,0,-2.2473,-2.2396,-2.2434,-2.2359,-2.2341,-2.2383,-2.2318,-2.234,-2.2286,-2.2309,-2.2308,-2.2224,-2.2227,-2.2148,-2.2136,-2.2095,-2.2166,-2.2129,-2.218,-2.217,-2.225,-2.2245,-2.2519,-2.2551,-2.2265,-2.2268,-2.227,0,-2.2241,-2.229,-2.2172,-2.2198,-2.2249,-2.2153,-2.2207,-2.2165,-2.2126,-2.2143,-2.2042,-2.2061,-2.1956,-2.1963,-2.1903,-2.1946,-2.1942,-2.1915,-2.1899,-2.1925,-2.1929,-2.1925,-2.1913,-2.1857,-2.1855,-2.1854,-2.1853,0,-2.205,-2.2041,-2.2083,-2.2069,-2.1993,-2.2015,-2.1985,-2.1939,-2.1935,-2.1916,-2.1912,-2.1897,-2.189,-2.1881,-2.1803,-2.174,-2.1853,-2.1749,-2.1825,-2.1827,-2.1856,-2.1855,-2.2116,-2.1851,-2.1851,-2.1851,-2.185,0,-2.185,-2.1832,-2.1903,-2.1837,-2.1839,-2.1866,-2.1844,-2.1849,-2.1808,-2.1771,-2.1755,-2.1679,-2.1708,-2.1612,-2.1651,-2.159,-2.1589,-2.1564,-2.1568,-2.1568,-2.1463,-2.1624,-2.1877,-2.1902,-2.1566,-2.1563,-2.1561,0,-2.1654,-2.1703,-2.162,-2.169,-2.1702,-2.1588,-2.1616,-2.1582,-2.1535,-2.1539,-2.1486,-2.1491,-2.1402,-2.1393,-2.1422,-2.1369,-2.1447,-2.1355,-2.1366,-2.1368,-2.1383,-2.1615,-2.1674,-2.183,-2.1529,-2.1533,-2.1535,0,-2.1491,-2.1396,-2.1414,-2.1394,-2.1332,-2.1341,-2.1373,-2.1356,-2.1364,-2.1335,-2.1361,-2.1365,-2.1299,-2.1284,-2.122,-2.1255,-2.1391,-2.1179,-2.1176,-2.1223,-2.1506,-2.1562,-2.1588,-2.1341,-2.1344,-2.1347,-2.151,0,-2.1213,-2.1226,-2.1271,-2.1228,-2.1222,-2.126,-2.1173,-2.1178,-2.1116,-2.1064,-2.11,-2.105,-2.1033,-2.104,-2.0981,-2.1085,-2.1056,-2.0984,-2.0886,-2.1038,-2.109,-2.1111,-2.0816,-2.0813,-2.081,-2.0808,0,0,-2.1046,-2.1062,-2.0969,-2.0995,-2.0984,-2.0864,-2.0913,-2.0888,-2.0841,-2.0837,-2.0781,-2.0781,-2.0743,-2.0795,-2.0835,-2.0828,-2.0839,-2.0789,-2.0966,-2.0984,-2.1,-2.1057,-2.108,-2.0802,-2.0801,-2.08,-2.0799,0,-2.0926,-2.0887,-2.0935,-2.0904,-2.0856,-2.0798,-2.081,-2.0741,-2.071,-2.0742,-2.0644,-2.0654,-2.0655,-2.0629,-2.0616,-2.078,-2.0706,-2.0781,-2.0899,-2.094,-2.0962,-2.0981,-2.1041,-2.1064,-2.0792,-2.0793,-2.0793,0,-2.0752,-2.07,-2.0713,-2.068,-2.0648,-2.0662,-2.0537,-2.0557,-2.0567,-2.0435,-2.0469,-2.043,-2.0386,-2.0446,-2.0469,-2.0419,-2.059,-2.0519,-2.0535,-2.0536,-2.0571,-2.0598,-2.0621,-2.0313,-2.0312,-2.031,0,0,-2.0661,-2.0671,-2.0586,-2.0648,-2.0634,-2.0548,-2.0546,-2.0484,-2.0446,-2.0432,-2.0379,-2.0347,-2.0346,-2.0348,-2.0343,-2.042,-2.0405,-2.0464,-2.0486,-2.0505,-2.0517,-2.0557,-2.0583,-2.0305,-2.0305,-2.0305,0,0,-2.0617,-2.052,-2.0464,-2.0524,-2.0492,-2.0412,-2.0454,-2.0383,-2.0369,-2.0356,-2.0252,-2.0239,-2.0292,-2.0258,-2.0201,-2.0307,-2.0211,-2.0223,-2.0328,-2.0355,-2.0377,-2.0386,-2.0067,0,0,0,0,0,-2.0449,-2.0532,-2.0482,-2.0479,-2.0436,-2.044,-2.0434,-2.035,-2.0284,-2.0319,-2.0264,-2.0184,-2.0206,-2.0154,-2.0153,-2.0217,-2.0241,-2.0253,-2.0263,-2.0417,-2.0446,-2.0471,0,0,0,0,0,0,-2.0447,-2.0444,-2.0479,-2.0405,-2.0394,-2.0436,-2.0306,-2.0286,-2.0278,-2.0262,-2.0197,-2.0182,-2.0111,-2.0148,-2.0149,-2.0212,-2.0067,-2.0246,-2.0256,-2.0264,-2.0427,-2.0451,-2.0472,0,0,0,0,0,-2.0445,-2.0442,-2.0396,-2.0403,-2.0394,-2.0302,-2.0303,-2.0284,-2.0277,-2.0191,-2.0174,-2.0214,-2.0115,-2.0109,-2.0148,-2.0214,-2.0066,-2.0066,-2.0252,-2.026,-2.0267,-2.0439,0,0,0,0,0,0,-2.0444,-2.0426,-2.0392,-2.0386,-2.0365,-2.0297,-2.0284,-2.0283,-2.0205,-2.0188,-2.0203,-2.0192,-2.0118,-2.0113,-2.011,-2.0219,-2.0065,-2.0065,-2.0066,-2.0258,-2.0264,-2.0269,0,0,0,0,0,0,-2.0427,-2.0422,-2.0389,-2.0346,-2.0334,-2.0294,-2.0282,-2.0303,-2.0205,-2.022,-2.0208,-2.0199,-2.0124,-2.0117,-2.0114,-2.0149,-2.0064,-2.0065,-2.0065,-2.0065,-2.0263,-2.0267,0,0,0,0,0,0,-2.0423,-2.0419,-2.0347,-2.0338,-2.0328,-2.0256,-2.0311,-2.0272,-2.0168,-2.0226,-2.0156,-2.0151,-2.013,-2.0125,-2.0117,-2.0155,-2.0151,-2.0064,-2.0065,-2.0065,-2.0065,0,0,0,0,0,0,0,-2.042,-2.0469,-2.0427,-2.0332,-2.0322,-2.0332,-2.0331,-2.0329,-2.0167,-2.0162,-2.0157,-2.0153,-2.0061,-2.0062,-2.0063,-2.0159,0,0,-2.0064,-2.0065,0,0,0,0,0,0,0,0,-2.0469,-2.0469,-2.0427,-2.0426,-2.0425,-2.0332,-2.0331,-2.0329,-2.0166,-2.0162,-2.0158,-2.0155,-2.0062,-2.0062,-2.0062,0,0,0,0,0,0,0,0,0,0,0,0,0,0,0,-2.0427,-2.0426,0,-2.0332,-2.0331,-2.033,-2.0165,-2.0162,-2.0159,-2.0156,-2.0062,-2.0062,-2.0062,0,0,0,0,0,0,0,0,0,0,0,0,0,0,0,0,0,0,0,0,0,0,0,0,0,0,0,0,0,0,0,0,0,0,0,0,0,0,0,0,0,0,0,0,0,0,0,0,0,0,0,0,0,0,0,0,0,0,0,0,0,0,0,0,0,0,0,0,0]}],[{"header":{"parameterUnit":"kt","parameterCategory":2,"dx":1,"dy":1,"la1":30.253999710083008,"la2":30.299108505249023,"lo1":-89.0895004272461,"lo2":-89.04439544677734,"nx":28,"ny":28,"refTime":"2022-10-27T21:00:00:Z","depth":0,"parameterNumber":2,"parameterNumberName":"V-component_of_WINDS"},"data":[-0.2755,-0.2794,-0.2774,-0.2809,-0.2797,-0.2818,-0.282,-0.2819,-0.2814,-0.2837,-0.2846,-0.283,-0.2817,-0.2824,-0.2834,-0.2827,-0.2835,-0.2863,-0.285,-0.2739,-0.2722,-0.2706,-0.2697,-0.2864,-0.2864,-0.2971,-0.2972,-0.2972,-0.2677,-0.2666,-0.2677,-0.2676,-0.2687,-0.2647,-0.2643,-0.2655,-0.2675,-0.2667,-0.2675,-0.2694,-0.2706,-0.2682,-0.2691,-0.271,-0.2693,-0.2714,-0.2715,-0.2714,-0.2593,-0.2583,-0.2728,-0.2728,-0.2728,-0.2728,-0.2728,-0.2728,-0.253,-0.2554,-0.2541,-0.2554,-0.2547,-0.2546,-0.2566,-0.2545,-0.2556,-0.2562,-0.2535,-0.2557,-0.2547,-0.2546,-0.2541,-0.2559,-0.2532,-0.2549,-0.2554,-0.2561,-0.2571,-0.2427,-0.2558,-0.2558,-0.2557,-0.2557,-0.2556,0,-0.2418,-0.2399,-0.2409,-0.2413,-0.2421,-0.2422,-0.242,-0.2431,-0.2385,-0.2396,-0.2412,-0.2417,-0.2428,-0.2441,-0.2444,-0.2434,-0.2397,-0.2389,-0.2402,-0.2419,-0.2434,-0.2431,-0.2238,-0.2387,-0.2385,-0.2384,-0.2383,-0.2383,-0.2272,-0.23,-0.2276,-0.2286,-0.2279,-0.2295,-0.2301,-0.2257,-0.2265,-0.2256,-0.2279,-0.229,-0.2297,-0.2325,-0.2301,-0.231,-0.2292,-0.2352,-0.2294,-0.2307,-0.2298,-0.2299,-0.2303,-0.2366,-0.2368,-0.237,-0.2371,0,-0.2193,-0.2158,-0.2196,-0.2169,-0.2163,-0.2195,-0.2173,-0.2194,-0.217,-0.2197,-0.2201,-0.2165,-0.2181,-0.2147,-0.2157,-0.2139,-0.2196,-0.2176,-0.22,-0.2196,-0.2249,-0.2246,-0.2419,-0.2441,-0.2263,-0.2265,-0.2266,0,-0.2057,-0.2095,-0.2043,-0.2067,-0.2108,-0.2063,-0.2106,-0.2091,-0.208,-0.21,-0.2049,-0.207,-0.2022,-0.2038,-0.2011,-0.205,-0.205,-0.2041,-0.2034,-0.2048,-0.205,-0.2055,-0.2049,-0.2012,-0.2011,-0.2011,-0.201,0,-0.194,-0.1955,-0.1992,-0.1991,-0.1966,-0.1984,-0.1975,-0.1962,-0.1967,-0.1969,-0.1973,-0.1977,-0.1981,-0.1985,-0.1952,-0.1914,-0.1997,-0.1938,-0.1988,-0.1989,-0.2012,-0.2012,-0.2169,-0.2009,-0.2009,-0.2008,-0.2008,0,-0.1826,-0.1828,-0.1885,-0.1864,-0.187,-0.1894,-0.1896,-0.1908,-0.1898,-0.1883,-0.1883,-0.1847,-0.1875,-0.1819,-0.1859,-0.182,-0.1826,-0.1818,-0.1821,-0.1826,-0.1766,-0.1865,-0.2014,-0.2031,-0.1825,-0.1823,-0.1822,0,-0.1704,-0.1752,-0.1714,-0.177,-0.1788,-0.1731,-0.1757,-0.1749,-0.173,-0.1743,-0.1722,-0.1737,-0.1688,-0.1688,-0.1711,-0.1692,-0.1743,-0.1683,-0.1707,-0.1709,-0.1716,-0.1852,-0.1886,-0.1984,-0.1801,-0.1804,-0.1805,0,-0.1605,-0.1573,-0.1586,-0.1583,-0.1564,-0.1578,-0.1607,-0.1612,-0.1623,-0.1618,-0.1643,-0.1661,-0.1626,-0.1626,-0.1597,-0.1623,-0.1707,-0.1582,-0.1582,-0.161,-0.1787,-0.1819,-0.1836,-0.1681,-0.1684,-0.1686,-0.1789,0,-0.1449,-0.1467,-0.1498,-0.1492,-0.1496,-0.1528,-0.1491,-0.1501,-0.1472,-0.1452,-0.1486,-0.147,-0.1475,-0.1483,-0.1455,-0.1525,-0.1509,-0.1471,-0.1418,-0.1506,-0.154,-0.1553,-0.1371,-0.1369,-0.1368,-0.1366,0,0,-0.1343,-0.1368,-0.1325,-0.1351,-0.1354,-0.1294,-0.1332,-0.1327,-0.1318,-0.1321,-0.129,-0.1315,-0.1304,-0.1349,-0.1373,-0.1374,-0.1385,-0.1355,-0.1463,-0.1474,-0.1484,-0.1521,-0.1535,-0.1364,-0.1363,-0.1363,-0.1362,0,-0.1279,-0.1266,-0.1302,-0.1295,-0.1282,-0.1258,-0.1267,-0.1245,-0.1233,-0.1265,-0.1217,-0.1233,-0.1253,-0.1249,-0.1249,-0.1347,-0.1313,-0.1351,-0.1418,-0.1449,-0.1462,-0.1473,-0.1512,-0.1526,-0.1358,-0.1359,-0.1359,0,-0.1178,-0.1161,-0.1174,-0.1173,-0.1164,-0.1183,-0.1117,-0.1139,-0.1153,-0.1089,-0.1122,-0.1108,-0.1098,-0.1144,-0.1163,-0.1136,-0.1249,-0.1205,-0.1214,-0.1217,-0.1245,-0.1261,-0.1274,-0.1092,-0.1092,-0.1091,0,0,-0.1128,-0.1144,-0.1113,-0.1157,-0.1154,-0.1119,-0.1125,-0.1097,-0.1089,-0.1086,-0.1068,-0.1061,-0.1073,-0.1081,-0.109,-0.1145,-0.1141,-0.1174,-0.1187,-0.1197,-0.1206,-0.1237,-0.1252,-0.1088,-0.1088,-0.1088,0,0,-0.1105,-0.107,-0.1042,-0.1088,-0.1081,-0.1054,-0.1083,-0.1048,-0.1052,-0.1045,-0.0999,-0.0996,-0.1038,-0.1026,-0.0992,-0.1071,-0.1018,-0.1026,-0.1078,-0.1093,-0.1105,-0.1109,-0.0924,0,0,0,0,0,-0.1021,-0.1074,-0.1049,-0.1051,-0.105,-0.1067,-0.1067,-0.103,-0.0994,-0.1018,-0.0998,-0.0958,-0.0999,-0.0967,-0.097,-0.1011,-0.1051,-0.1057,-0.1063,-0.1143,-0.1159,-0.1173,0,0,0,0,0,0,-0.1022,-0.1024,-0.1048,-0.1023,-0.1022,-0.1065,-0.0996,-0.0988,-0.0991,-0.0983,-0.0964,-0.0958,-0.0927,-0.0963,-0.0966,-0.1005,-0.0923,-0.1053,-0.1059,-0.1064,-0.1149,-0.1162,-0.1174,0,0,0,0,0,-0.1022,-0.1024,-0.1032,-0.1022,-0.1021,-0.0985,-0.0994,-0.0986,-0.0988,-0.0957,-0.095,-0.096,-0.0929,-0.093,-0.0965,-0.1005,-0.092,-0.0921,-0.1057,-0.1061,-0.1065,-0.1155,0,0,0,0,0,0,-0.1022,-0.1017,-0.1031,-0.103,-0.0999,-0.0982,-0.0978,-0.0985,-0.0961,-0.0954,-0.0951,-0.0945,-0.0932,-0.0931,-0.0932,-0.1007,-0.0918,-0.0919,-0.092,-0.106,-0.1064,-0.1067,0,0,0,0,0,0,-0.1016,-0.1017,-0.103,-0.1004,-0.0999,-0.098,-0.0976,-0.1,-0.0961,-0.0956,-0.0951,-0.0949,-0.0931,-0.0933,-0.0933,-0.0972,-0.0916,-0.0918,-0.0918,-0.0919,-0.1063,-0.1066,0,0,0,0,0,0,-0.1016,-0.1016,-0.1004,-0.1,-0.0996,-0.0976,-0.1,-0.1001,-0.0938,-0.0958,-0.0931,-0.0928,-0.0934,-0.0933,-0.0934,-0.0973,-0.0972,-0.0916,-0.0917,-0.0918,-0.0918,0,0,0,0,0,0,0,-0.1015,-0.102,-0.104,-0.0997,-0.0993,-0.1016,-0.1015,-0.1015,-0.0937,-0.0934,-0.0932,-0.0929,-0.0908,-0.091,-0.0911,-0.0974,0,0,-0.0916,-0.0917,0,0,0,0,0,0,0,0,-0.1019,-0.102,-0.104,-0.1039,-0.1039,-0.1016,-0.1015,-0.1015,-0.0937,-0.0935,-0.0932,-0.093,-0.0909,-0.091,-0.0911,0,0,0,0,0,0,0,0,0,0,0,0,0,0,0,-0.104,-0.1039,0,-0.1016,-0.1015,-0.1015,-0.0936,-0.0935,-0.0933,-0.0931,-0.0909,-0.091,-0.0911,0,0,0,0,0,0,0,0,0,0,0,0,0,0,0,0,0,0,0,0,0,0,0,0,0,0,0,0,0,0,0,0,0,0,0,0,0,0,0,0,0,0,0,0,0,0,0,0,0,0,0,0,0,0,0,0,0,0,0,0,0,0,0,0,0,0,0,0,0]}]]]